Change the Weather History Date:

Tuesday, August 12, 2014

  Actual Average Record
Temperature  
Mean Temperature 78 °F -  
Max Temperature 82 °F 87 °F 96 °F (2011)
Min Temperature 73 °F 70 °F 70 °F (2001)
Cooling Degree Days 12    
Growing Degree Days 28 (Base 50)    
Moisture  
Dew Point 73 °F    
Average Humidity 87    
Maximum Humidity 97    
Minimum Humidity 66    
Precipitation  
Precipitation 0.58 in - - ()
Sea Level Pressure  
Sea Level Pressure 30.01 in    
Wind  
Wind Speed 6 mph (SSW)    
Max Wind Speed 25 mph    
Max Gust Speed 32 mph    
Visibility 8 miles    
Events Rain , Thunderstorm    
Averages and records for this station are not official NWS values.
T = Trace of Precipitation, MM = Missing Value Source: NWS Daily Summary

Daily Weather History Graph

Daily Weather History Graph

Search for Another Location

Airport or City:

Trip Planner

Search our weather history database for the weather conditions in past years. The results will help you decide how hot, cold, wet, or windy it might be!

Date:

Astronomy

Aug. 12, 2014 Rise Set
Actual Time 6:57 AM EDT 8:11 PM EDT
Civil Twilight 6:32 AM EDT 8:36 PM EDT
Nautical Twilight 6:03 AM EDT 9:05 PM EDT
Astronomical Twilight 5:32 AM EDT 9:36 PM EDT
Moon 9:36 PM EDT (8/12) 8:58 AM EDT (8/12)
Length of Visible Light 14h 03m
Length of Day
13h 13m
Waning Gibbous, 95% of the Moon is Illuminated
Aug 12
Waning Gibbous
Aug 17
Last Quarter
Aug 25
New
Sep 2
First Quarter
Sep 8
Full

Hourly Weather History & Observations

Time (EDT) Temp. Heat Index Dew Point Humidity Pressure Visibility Wind Dir Wind Speed Gust Speed Precip Events Conditions
12:53 AM 75.0 °F - 73.0 °F 94% 30.02 in 10.0 mi South 3.5 mph - N/A   Clear
1:53 AM 75.0 °F - 73.0 °F 94% 30.00 in 10.0 mi Calm Calm - N/A   Clear
2:53 AM 73.9 °F - 73.0 °F 97% 29.99 in 10.0 mi SSE 3.5 mph - N/A   Clear
3:53 AM 73.9 °F - 73.0 °F 97% 29.98 in 10.0 mi South 4.6 mph - N/A   Clear
5:01 AM 75.0 °F - 73.0 °F 94% 29.97 in 9.0 mi Calm Calm - N/A   Scattered Clouds
5:53 AM 75.0 °F - 73.0 °F 94% 29.97 in 8.0 mi South 4.6 mph - N/A   Partly Cloudy
6:53 AM 75.0 °F - 73.0 °F 94% 29.98 in 9.0 mi South 4.6 mph - N/A   Partly Cloudy
7:53 AM 75.9 °F - 73.9 °F 94% 30.00 in 9.0 mi SSE 3.5 mph - N/A   Overcast
8:53 AM 78.1 °F - 75.9 °F 93% 30.00 in 10.0 mi South 6.9 mph - N/A   Partly Cloudy
9:53 AM 81.0 °F 87.3 °F 75.9 °F 85% 30.04 in 9.0 mi WSW 20.7 mph 27.6 mph N/A   Scattered Clouds
9:56 AM 78.1 °F - 73.0 °F 84% 30.05 in 1.0 mi West 25.3 mph 32.2 mph 0.12 in Rain Light Rain
10:03 AM 75.0 °F - 66.9 °F 76% 30.03 in 0.5 mi West 15.0 mph 32.2 mph 0.23 in Rain Heavy Rain
10:07 AM 75.0 °F - 66.0 °F 73% 30.03 in 1.0 mi West 12.7 mph 26.5 mph 0.26 in Rain Heavy Rain
10:11 AM 77.0 °F - 64.9 °F 66% 30.03 in 2.0 mi West 6.9 mph - 0.26 in Rain Heavy Rain
10:19 AM 77.0 °F - 68.0 °F 74% 30.03 in 9.0 mi SW 5.8 mph - 0.27 in Rain Light Rain
10:29 AM 75.9 °F - 71.1 °F 85% 30.04 in 1.2 mi SW 21.9 mph 26.5 mph 0.38 in Rain Rain
10:40 AM 75.9 °F - 70.0 °F 82% 30.04 in 3.0 mi South 10.4 mph - 0.43 in Rain Light Rain
10:53 AM 75.0 °F - 70.0 °F 84% 30.04 in 10.0 mi SSE 5.8 mph - 0.43 in Rain Light Rain
11:53 AM 79.0 °F - 73.0 °F 82% 30.04 in 10.0 mi Calm Calm - 0.00 in Thunderstorm Mostly Cloudy
1:53 PM 79.0 °F - 73.9 °F 84% 30.03 in 10.0 mi WSW 5.8 mph - 0.03 in Rain Light Rain
2:53 PM 75.9 °F - 73.0 °F 91% 30.04 in 10.0 mi West 15.0 mph - 0.01 in Rain Light Rain
3:53 PM 75.0 °F - 73.0 °F 94% 30.00 in 8.0 mi South 3.5 mph - 0.10 in Rain Light Rain
4:53 PM 78.1 °F - 75.0 °F 90% 29.99 in 10.0 mi SW 9.2 mph - 0.01 in   Scattered Clouds
5:53 PM 80.1 °F 84.5 °F 73.9 °F 81% 29.96 in 10.0 mi SSW 5.8 mph - N/A   Clear
6:53 PM 82.0 °F 88.6 °F 75.0 °F 79% 29.97 in 10.0 mi WSW 9.2 mph - N/A   Clear
7:53 PM 81.0 °F 86.7 °F 75.0 °F 82% 29.98 in 10.0 mi WSW 5.8 mph - N/A   Partly Cloudy
8:53 PM 78.1 °F - 75.9 °F 93% 29.99 in 10.0 mi Calm Calm - N/A   Clear
9:53 PM 75.9 °F - 73.9 °F 94% 30.00 in 10.0 mi Calm Calm - N/A   Clear
10:53 PM 75.0 °F - 73.9 °F 96% 30.01 in 10.0 mi Calm Calm - N/A   Clear
11:53 PM 75.9 °F - 73.9 °F 94% 30.01 in 10.0 mi Calm Calm - N/A   Clear